This is the latest recevied weather packets stored in our database for station/object N1YZ. If no packets are shown the sender has not sent any weather packets the latest 10 day(s).
| Time | Temp. | Humidity | Pressure | Rain* | Wind** | Luminosity | Snow |
|---|---|---|---|---|---|---|---|
| 1788370486 | 34.44° C | 55% | 1037.7 hPa | 0 mm | - | 82 W/m² | - |
| 1788370181 | 34.44° C | 54% | 1037.9 hPa | 0 mm | - | 303 W/m² | - |
| 1788369880 | 35° C | 56% | 1038.1 hPa | 0 mm | - | 597 W/m² | - |
| 1788369575 | 34.44° C | 54% | 1038.1 hPa | 0 mm | - | 647 W/m² | - |
| 1788369271 | 35° C | 53% | 1038 hPa | 0 mm | - | 351 W/m² | - |
| 1788368967 | 35° C | 54% | 1038.3 hPa | 0 mm | - | 96 W/m² | - |
| 1788368662 | 34.44° C | 54% | 1038.3 hPa | 0 mm | - | 117 W/m² | - |
| 1788368357 | 34.44° C | 54% | 1038.4 hPa | 0 mm | - | 148 W/m² | - |
| 1788368057 | 34.44° C | 56% | 1038.6 hPa | 0 mm | - | 428 W/m² | - |
| 1788367752 | 33.89° C | 56% | 1038.5 hPa | 0 mm | - | 87 W/m² | - |
| 1788367446 | 33.33° C | 56% | 1038.7 hPa | 0 mm | - | 156 W/m² | - |
| 1788367146 | 33.33° C | 60% | 1038.5 hPa | 0 mm | - | 471 W/m² | - |
| 1788366841 | 33.33° C | 58% | 1038.6 hPa | 0 mm | - | 558 W/m² | - |
| 1788366539 | 33.33° C | 57% | 1038.7 hPa | 0 mm | - | 205 W/m² | - |
| 1788366234 | 33.89° C | 61% | 1038.6 hPa | 0 mm | - | 90 W/m² | - |
| 1788365934 | 33.33° C | 57% | 1038.8 hPa | 0 mm | - | 80 W/m² | - |
| 1788365629 | 33.33° C | 57% | 1038.8 hPa | 0 mm | - | 97 W/m² | - |
| 1788365326 | 32.78° C | 60% | 1038.9 hPa | 0 mm | - | 123 W/m² | - |
| 1788365021 | 32.78° C | 61% | 1039 hPa | 0 mm | - | 81 W/m² | - |
| 1788364719 | 32.78° C | 61% | 1039.1 hPa | 0 mm | - | 72 W/m² | - |
| 1788364418 | 32.78° C | 57% | 1039.2 hPa | 0 mm | - | 80 W/m² | - |
| 1788364113 | 33.33° C | 58% | 1039.1 hPa | 0 mm | - | 60 W/m² | - |
| 1788363809 | 33.33° C | 59% | 1039.3 hPa | 0 mm | - | 59 W/m² | - |
| 1788363507 | 32.78° C | 59% | 1039.3 hPa | 0 mm | - | 236 W/m² | - |
| 1788363207 | 32.78° C | 58% | 1039.2 hPa | 0 mm | - | 75 W/m² | - |
* Rain latest hour (hover to see other rain measurements)
** Current wind speed in m/s (hover to see current wind gust speed)